User: anonymous   Login
Location: Cherry Road
(34.5193°N, 112.0852°W)
Time: 08:34:25
(UTC-07:00)
Language:

Hubble Space Telescope - Orbit

View from above orbital plane
View from above orbital plane
View from above satellite
View from above satellite

Ground track
Ground track

The orbit data is extracted from the following two-line orbital elements,

1 20580U 90037B   18115.41361177  .00000500  00000-0  19699-4 0  9993
2 20580  28.4690 103.9640 0002455 294.6441 193.7806 15.09023791337492
Epoch (UTC): 25 April 2018 09:55:36
Eccentricity: 0.0002455
inclination: 28.4690°
perigee height: 537 km
apogee height: 541 km
right ascension of ascending node: 103.9640°
argument of perigee: 294.6441°
revolutions per day: 15.09023791
mean anomaly at epoch: 193.7806°
orbit number at epoch: 33749

The dashed part of the orbit path shows where the satellite is in the earth's shadow,  

DLR